Location: Doverdale
(52.2833°N, 2.2000°W)
Time: 03:34:24
(UTC+00:00)

Cosmos 1980 Rocket - Pass Details

Date: 03 March 2021
Orbit: 828 x 851 km, 71.0° (Epoch: 15 April)

Event Time Altitude Azimuth Distance (km) Brightness Sun altitude
Rises 00:28:24 0° 327° (NNW) 3,428 5.9 -44.5°
Reaches altitude 10° 00:31:31 10° 344° (NNW) 2,490 5.2 -44.5°
Enters shadow 00:32:53 15° 355° (N) 2,162 4.8 -44.5°
